Location: Newark
(41.0400°S, 62.7845°W)
Time: 22:42:53
(UTC+00:00)

Vanguard 2 - Pass Details

Date: 07 December 2021
Orbit: 554 x 2935 km, 32.9° (Epoch: 27 January)

Event Time Altitude Azimuth Distance (km) Brightness Sun altitude
Rises 05:33:52 0° 283° (WNW) 6,755 12.0 -22.9°
Reaches altitude 10° 05:38:24 10° 285° (WNW) 5,773 11.6 -22.6°
Maximum altitude 05:55:51 63° 360° (N) 2,810 10.0 -21.1°
Drops below altitude 10° 06:08:35 10° 77° (ENE) 4,365 11.6 -19.9°
Sets 06:11:30 0° 80° (E) 5,084 12.0 -19.6°
